Regional Weather Roundup
Issued by NWS

Home | Current Version | Previous Version | Text Only | Print | Product List | Glossary On
Versions: 1 2 3 4 5 6 7 8 9 10 11 12 13 14 15 16 17 18 19 20 21 22 23 24 25 26 27 28 29 30 31 32 33 34 35 36 37 38 39 40 41 42 43 44 45 46 47 48 49 50
000
ASUS43 KOAX 050502
RWRNE

WEATHER ROUNDUP FOR NEBRASKA
NATIONAL WEATHER SERVICE OMAHA NE
1200 AM CDT WED AUG 05 2015

NOTES: SATELLITE DATA IS BEING USED TO AUGMENT CLOUD COVER ABOVE
       12000 FEET.
       "FAIR" INDICATES FEW OR NO CLOUDS BELOW 12,000 FEET WITH NO
       SIGNIFICANT WEATHER AND/OR OBSTRUCTIONS TO VISIBILITY.

  * THESE STATIONS DO NOT REPORT WEATHER SUCH AS RAIN...SNOW OR FOG.

NEZ001>004-019>022-054>056-050600-
NEBRASKA PANHANDLE

CITY           SKY/WX    TMP DP  RH WIND       PRES   REMARKS
SCOTTSBLUFF    PTCLDY    65  64  97 CALM      30.08R FOG
ALLIANCE       MOCLDY    62  60  93 S6        30.06S
CHADRON        CLOUDY    65  60  84 CALM      30.03R
KIMBALL        CLEAR     57  54  89 SW6       30.12R
SIDNEY         CLEAR     61  59  93 SE6       30.10S
$$

NEZ057>060-069>072-079>082-050600-
SOUTHWEST NEBRASKA

CITY           SKY/WX    TMP DP  RH WIND       PRES   REMARKS
NORTH PLATTE   MOCLDY    61  60  97 CALM      30.02F
IMPERIAL       PTCLDY    62  60  93 CALM      30.05S
LEXINGTON      PTCLDY    63  62  96 CALM      30.00R
MCCOOK         PTCLDY    63  61  93 CALM      30.02R
$$

NEZ005>010-023>029-035>040-094-050600-
NORTH CENTRAL NEBRASKA

CITY           SKY/WX    TMP DP  RH WIND       PRES   REMARKS
AINSWORTH      CLOUDY    67  65  94 CALM      30.02S
BROKEN BOW     CLOUDY    66  63  90 N5        29.99F
O`NEILL        CLOUDY    69  65  88 SE6       29.99F
ORD            CLOUDY    65  63  93 SE5       29.98F
$$

NEZ041-046>049-061>064-073>077-083>087-050600-
SOUTH CENTRAL NEBRASKA

CITY           SKY/WX    TMP DP  RH WIND       PRES   REMARKS
GRAND ISLAND   CLOUDY    65  63  93 CALM      30.00S
AURORA         CLOUDY    65  65 100 CALM      29.99S
HASTINGS       CLOUDY    66  65  96 E3        30.00S
KEARNEY *      CLOUDY    64  61  88 NE8       30.00S
$$

NEZ011>018-030>034-042>045-050600-
NORTHEAST NEBRASKA

CITY           SKY/WX    TMP DP  RH WIND       PRES   REMARKS
NORFOLK        MOCLDY    67  65  93 CALM      29.98F
ALBION         CLOUDY    66  63  89 CALM      29.99F
BLAIR          CLOUDY    68  65  89 E5        29.96S
COLUMBUS *     CLOUDY    68  63  83 CALM      29.97F
TEKAMAH        CLOUDY    68  64  87 NE7       29.99R
$$

NEZ050>053-065>068-078-088>093-050600-
SOUTHEAST NEBRASKA

CITY           SKY/WX    TMP DP  RH WIND       PRES   REMARKS
LINCOLN        CLOUDY    73  68  84 S3        29.96S
OMAHA EPPLEY   CLOUDY    70  67  90 E6        29.96S
BEATRICE       CLOUDY    71  69  92 CALM      29.95S
FALLS CITY     CLOUDY    69  68  96 E5        29.95F
NEBRASKA CITY  MOCLDY    69  68  97 S6        29.97R
$$

NEZ044-045-051>053-067-050600-
OMAHA AREA

CITY           SKY/WX    TMP DP  RH WIND       PRES   REMARKS
OMAHA EPPLEY   CLOUDY    70  67  90 E6        29.96S
BLAIR          CLOUDY    68  65  89 E5        29.96S
OFFUTT AFB     CLOUDY    69  67  94 E7        29.95F
WAHOO          FAIR      70  68  94 E3        29.96S
$$


USA.gov is the U.S. government's official web portal to all federal, state and local government web resources and services.